[Iaude] MPEC T38: 2023 TU [a=2.47,e=0.59,i=5.3,H=28.0]

mpec at marsden.cfa.harvard.edu mpec at marsden.cfa.harvard.edu
Thu Oct 5 22:09:40 EDT 2023


M.P.E.C. 2023-T38                               Issued 2023 October 6, 02:08 UT

     The Minor Planet Electronic Circulars contain information on unusual
         minor planets, routine data on comets and natural satellites,
         and occasional editorial announcements.  They are published
    on behalf of Division F of the International Astronomical Union by the
          Minor Planet Center, Smithsonian Astrophysical Observatory,
                          Cambridge, MA 02138, U.S.A.
			  
             Prepared using the Tamkin Foundation Computer Network

                              MPC at CFA.HARVARD.EDU
            URL https://www.minorplanetcenter.net/    ISSN 1523-6714

                                    2023 TU                                     


Observations:
     K23T00U*1C2023 10 05.17105923 10 09.410+09 11 55.10               VET038G96
     K23T00U 1C2023 10 05.17668823 10 30.240+09 12 01.30               VET038G96
     K23T00U 1C2023 10 05.18230823 10 51.090+09 12 06.80               VET038G96
     K23T00U 1C2023 10 05.18793023 11 11.900+09 12 12.90         19.93GVET038G96
     K23T00U KC2023 10 05.21438323 12 50.036+09 12 38.16         19.74GVET038I52
     K23T00U KC2023 10 05.21520623 12 53.075+09 12 38.95         19.91GVET038I52
     K23T00U KC2023 10 05.21602423 12 56.128+09 12 40.14         19.86GVET038I52
     K23T00U KC2023 10 05.21684523 12 59.173+09 12 40.46         19.73GVET038I52
     K23T00U KC2023 10 05.23258923 13 57.716+09 12 53.14         20.04GVET038I52
     K23T00U KC2023 10 05.23340623 14 00.748+09 12 54.07         19.74GVET038I52
     K23T00U KC2023 10 05.23423323 14 03.829+09 12 54.54         19.96GVET038I52
     K23T00U  C2023 10 05.23524723 13 47.28 +09 21 55.7                WET038X09
     K23T00U  C2023 10 05.24224423 14 13.55 +09 21 58.6                WET038X09
     K23T00U KC2023 10 05.27958423 16 51.654+09 13 09.77         19.6 GVET038H01
     K23T00U KC2023 10 05.28724623 17 20.487+09 13 13.85         19.8 GVET038H01
     K23T00U KC2023 10 05.29415223 17 46.511+09 13 16.97         19.6 GVET038H01
     K23T00U  C2023 10 05.30105923 18 12.615+09 13 19.85         20.0 GVET038H01
     K23T00U 0B2023 10 05.86167023 56 42.104+09 20 19.74         20.4 VZET038M49
     K23T00U 0B2023 10 05.86602223 56 59.376+09 20 15.51         20.0 VZET038M49
     K23T00U 0B2023 10 05.87033823 57 16.538+09 20 12.24         20.0 VZET038M49
     K23T00U KC2023 10 05.92596200 01 06.16 +09 08 53.2          19.4 GXET038958
     K23T00U KC2023 10 05.93119800 01 27.21 +09 08 48.4          19.2 GXET038958
     K23T00U KC2023 10 05.93715700 01 51.05 +09 08 40.5          19.1 GXET038958
     K23T00U KB2023 10 06.00885000 06 39.33 +09 06 54.1          19.7 GVET038I93
     K23T00U KB2023 10 06.01245400 06 53.87 +09 06 48.7          19.1 GVET038I93
     K23T00U KB2023 10 06.01605900 07 08.46 +09 06 42.2          19.7 GVET038I93

Observer details:
958 Observatoire de Dax.  Observers P. Dupouy, J. B. de Vanssay.  Measurer P.
    Dupouy.  0.43-m f/2.7 Reflector + CCD.
G96 Mt. Lemmon Survey.  Observer G. J. Leonard.  Measurers E. C. Beshore, D.
    Fay, J. B. Fazekas, D. C. Fuls, A. R. Gibbs, A. D. Grauer, H. Groeller, J.
    K. Hogan, R. A. Kowalski, S. M. Larson, G. J. Leonard, D. Rankin, R. L.
    Seaman, F. C. Shelly, K. W. Wierzchos.  1.5-m reflector + 10K CCD.
H01 Magdalena Ridge Observatory, Socorro.  Observers W. H. Ryan, E. V. Ryan.
    Measurer W. H. Ryan.  2.4-m f/8.9 Ritchey-Chretien + CCD.
I52 Steward Observatory, Mt. Lemmon Station.  Observer D. Rankin.  Measurers
    E. C. Beshore, D. Fay, J. B. Fazekas, D. C. Fuls, A. R. Gibbs, A. D.
    Grauer, H. Groeller, J. K. Hogan, R. A. Kowalski, S. M. Larson, G. J.
    Leonard, D. Rankin, R. L. Seaman, F. C. Shelly, K. W. Wierzchos.  1.0-m
    prime focus + CCD.
I93 St Pardon de Conques.  Observer F. Losse.  0.40-m f/3.7 reflector + CMO.
M49 IAS Remote Observatory, Hakos.  Observers D. Husar, M. Junius.  Measurer
    D. Husar.  0.25-m f/4.5 reflector + CMO.
X09 Deep Random Survey, Rio Hurtado.  Observers A. Schnabel, D. Ruhela.
    Measurers D. Ruhela, S. Deen.  0.43-m reflector + CMOS.

Orbital elements:
2023 TU                                                  Earth MOID = 0.0153 AU
Epoch 2023 Sept. 13.0 TT = JDT 2460200.5                Veres                   
M 354.61127              (2000.0)            P               Q                  
n   0.25332551     Peri.  176.59526     +0.98492538     -0.17164301             
a   2.4737175      Node   193.34616     +0.15642838     +0.93676621             
e   0.5896085      Incl.    5.33520     +0.07383877     +0.30497170             
P   3.89           H   28.02          G   0.15           U   8                  
Residuals in seconds of arc
231005 G96  0.5-  0.6-    231005 I52  0.2-  0.4-    231005 M49  0.5-  0.1-
231005 G96  0.6-  0.6-    231005 I52  0.2-  0.6-    231005 M49  0.2-  0.6+
231005 G96  0.0   1.0-    231005 X09  0.9+  0.7-    231005 958  1.0+  1.0-
231005 G96  0.2-  0.7-    231005 X09  0.1-  1.2-    231005 958  0.9+  0.3+
231005 I52  0.1+  0.5-    231005 H01  0.2+  0.6-    231005 958  0.9-  0.6-
231005 I52  0.2-  0.4-    231005 H01  0.0   0.3-    231006 I93  0.2-  0.6+
231005 I52  0.0   0.0     231005 H01  0.2-  0.3-    231006 I93  0.2-  1.0+
231005 I52  0.1-  0.4-    231005 H01  0.0   0.3-    231006 I93  0.3+  0.3+
231005 I52  0.1-  0.7-    231005 M49  0.3-  0.3+

Ephemeris:
2023 TU                  a,e,i = 2.47, 0.59, 5                   q = 1.0152
Date    TT    R. A. (2000) Decl.     Delta      r    Elong.  Phase     V
2023 09 06    18 49 36.7 +02 32 29   0.1387  1.0796   117.6    55.8    25.9
...
2023 09 21    19 06 14.6 +03 34 52   0.07256 1.0299   108.8    67.4    24.8
...
2023 09 29    19 54 17.7 +05 21 29   0.03716 1.0175   113.8    64.3    23.2
...
2023 10 05    22 59 01.8 +09 12 16   0.01658 1.0152   154.2    25.4    20.3
2023 10 06    00 06 06.1 +09 12 32   0.01570 1.0154   169.5    10.4    19.7
2023 10 07    01 14 35.4 +08 24 41   0.01621 1.0158   172.7     7.1    19.6
...
2023 10 13    04 31 06.9 +02 25 47   0.03609 1.0215   129.8    48.7    22.7
...
2023 10 21    05 19 54.7 +00 26 18   0.07193 1.0382   124.5    52.2    24.3
...
2023 11 05    05 34 14.1 +00 04 57   0.1418  1.0948   133.9    40.7    25.6

M. P. C. Staff               (C) Copyright 2023 MPC           M.P.E.C. 2023-T38





More information about the Iaude mailing list